Rochester, NY

1:22 PM EDT on September 16, 2019 (GMT -0400)
Greater Rochester International

Weather History for KROC - July, 2019

Change the Weather History Date:

Thursday, July 25, 2019

  Actual Average Record
Temperature  
Mean Temperature 70 °F 71 °F  
Max Temperature 82 °F 81 °F 98 °F (1941)
Min Temperature 57 °F 61 °F 48 °F (1953)
Degree Days  
Heating Degree Days 0 0  
Month to date heating degree days 6  
Since 1 June heating degree days 74  
Since 1 July heating degree days 6  
Cooling Degree Days 4 6  
Month to date cooling degree days 150  
Year to date cooling degree days 286  
Since 1 June cooling degree days 256  
Growing Degree Days 20 (Base 50)    
Moisture  
Dew Point 56 °F    
Average Humidity 62    
Maximum Humidity 90    
Minimum Humidity 32    
Precipitation  
Precipitation 0.00 in 0.11 in 2.21 in (1929)
Month to date precipitation 2.65  
Year to date precipitation 18.45  
Snow  
Snow 0.00 in 0.00 in 0.00 in ()
Month to date snowfall 0.0  
Since 1 June snowfall 0.0  
Since 1 July snowfall 0.0  
Snow Depth -    
Sea Level Pressure  
Sea Level Pressure 30.15 in    
Wind  
Wind Speed 6 mph (West)    
Max Wind Speed 12 mph    
Max Gust Speed -    
Visibility 10 miles    
Events      
T = Trace of Precipitation, MM = Missing Value Source: NWS Daily Summary

Daily Weather History Graph

Daily Weather History Graph

Search for Another Location

Airport or City:

Astronomy

Jul. 25, 2019 Rise Set
Actual Time 5:53 AM EDT 8:40 PM EDT
Civil Twilight 5:20 AM EDT 9:13 PM EDT
Nautical Twilight 4:38 AM EDT 9:54 PM EDT
Astronomical Twilight 3:50 AM EDT 10:42 PM EDT
Moon 12:42 AM EDT (7/25) 2:15 PM EDT (7/25)
Length of Visible Light 15h 52m
Length of Day
14h 46m
Last Quarter, 44% of the Moon is Illuminated
Jul 25
Last Quarter
Jul 31
New
Aug 7
First Quarter
Aug 15
Full
Aug 23
Last Quarter

Hourly Weather History & Observations

Time (EDT) Temp. Heat Index Dew Point Humidity Pressure Visibility Wind Dir Wind Speed Gust Speed Precip Events Conditions
12:54 AM 60.1 °F - 55.0 °F 83% 30.09 in 10.0 mi SW 5.8 mph - N/A   Clear
1:54 AM 59.0 °F - 54.0 °F 83% 30.09 in 10.0 mi WSW 3.5 mph - N/A   Clear
2:54 AM 59.0 °F - 55.0 °F 87% 30.10 in 10.0 mi WSW 3.5 mph - N/A   Clear
3:54 AM 57.9 °F - 54.0 °F 87% 30.10 in 10.0 mi WSW 3.5 mph - N/A   Clear
4:54 AM 57.0 °F - 54.0 °F 89% 30.12 in 10.0 mi WSW 4.6 mph - N/A   Partly Cloudy
5:54 AM 57.0 °F - 54.0 °F 89% 30.13 in 10.0 mi WSW 5.8 mph - N/A   Partly Cloudy
6:54 AM 59.0 °F - 55.9 °F 90% 30.14 in 10.0 mi SW 4.6 mph - N/A   Partly Cloudy
7:54 AM 63.0 °F - 57.9 °F 84% 30.16 in 10.0 mi WSW 5.8 mph - N/A   Partly Cloudy
8:54 AM 69.1 °F - 60.1 °F 73% 30.17 in 10.0 mi WSW 6.9 mph - N/A   Partly Cloudy
9:54 AM 73.0 °F - 60.1 °F 64% 30.17 in 10.0 mi WSW 8.1 mph - N/A   Partly Cloudy
10:54 AM 75.9 °F - 57.9 °F 54% 30.17 in 10.0 mi West 8.1 mph - N/A   Partly Cloudy
11:54 AM 79.0 °F - 55.9 °F 45% 30.17 in 10.0 mi West 11.5 mph - N/A   Partly Cloudy
12:54 PM 80.1 °F 80.1 °F 55.0 °F 42% 30.17 in 10.0 mi West 10.4 mph - N/A   Partly Cloudy
1:54 PM 81.0 °F 80.8 °F 55.9 °F 42% 30.17 in 10.0 mi NNW 6.9 mph - N/A   Partly Cloudy
2:54 PM 82.0 °F 81.6 °F 55.9 °F 41% 30.16 in 10.0 mi NW 9.2 mph - N/A   Partly Cloudy
3:54 PM 82.9 °F 82.1 °F 55.9 °F 39% 30.15 in 10.0 mi West 10.4 mph - N/A   Partly Cloudy
4:54 PM 82.0 °F 81.6 °F 55.9 °F 41% 30.14 in 10.0 mi West 9.2 mph - N/A   Mostly Cloudy
5:54 PM 82.0 °F 81.6 °F 55.9 °F 41% 30.15 in 10.0 mi West 5.8 mph - N/A   Mostly Cloudy
6:54 PM 82.0 °F 82.0 °F 57.9 °F 44% 30.16 in 10.0 mi WNW 6.9 mph - N/A   Scattered Clouds
7:54 PM 79.0 °F - 57.0 °F 47% 30.16 in 10.0 mi West 8.1 mph - N/A   Partly Cloudy
8:54 PM 75.0 °F - 57.0 °F 53% 30.17 in 10.0 mi West 4.6 mph - N/A   Scattered Clouds
9:54 PM 73.9 °F - 55.0 °F 52% 30.19 in 10.0 mi West 5.8 mph - N/A   Mostly Cloudy
10:54 PM 68.0 °F - 57.0 °F 68% 30.19 in 10.0 mi WSW 5.8 mph - N/A   Clear
11:54 PM 66.9 °F - 55.0 °F 66% 30.20 in 10.0 mi WSW 4.6 mph - N/A   Clear